TimeCEST,TemperatureF,Dew PointF,Humidity,Sea Level PressureIn,VisibilityMPH,Wind Direction,Wind SpeedMPH,Gust SpeedMPH,PrecipitationIn,Events,Conditions,WindDirDegrees,DateUTC
12:55 AM,66.2,62.6,88,30.09,6.2,NE,2.3,-,N/A,,Partly Cloudy,40,2012-10-06 22:55:00
1:55 AM,64.4,59.0,83,30.09,6.2,NE,2.3,-,N/A,,Partly Cloudy,50,2012-10-06 23:55:00
2:55 AM,64.4,59.0,83,30.09,6.2,NNW,4.6,-,N/A,,Mostly Cloudy,340,2012-10-07 00:55:00
3:55 AM,64.4,59.0,83,30.09,4.3,North,1.2,-,N/A,,Mostly Cloudy,10,2012-10-07 01:55:00
4:55 AM,68.0,62.6,83,30.06,5.0,WNW,3.5,-,N/A,,Mostly Cloudy,290,2012-10-07 02:55:00
5:00 AM,67,63,84,30.09,5,WNW,3.5,,,,Mist,290,2012-10-07 03:00:00
5:55 AM,68.0,64.4,88,30.09,5.0,WNW,2.3,-,N/A,,Mostly Cloudy,290,2012-10-07 03:55:00
6:55 AM,66.2,62.6,88,30.06,3.7,ENE,5.8,-,N/A,,Scattered Clouds,60,2012-10-07 04:55:00
7:55 AM,64.4,60.8,88,30.06,4.3,NNE,1.2,-,N/A,,Partly Cloudy,30,2012-10-07 05:55:00
8:00 AM,65,61,83,30.08,4,NNE,1.2,,,,Mist,30,2012-10-07 06:00:00
8:55 AM,68.0,62.6,83,30.06,5.0,North,3.5,-,N/A,,Partly Cloudy,350,2012-10-07 06:55:00
9:55 AM,71.6,66.2,83,30.06,5.6,NNW,1.2,-,N/A,,Partly Cloudy,340,2012-10-07 07:55:00
10:55 AM,75.2,68.0,78,30.06,6.2,NNW,2.3,-,N/A,,Scattered Clouds,330,2012-10-07 08:55:00
11:00 AM,76,68,70,30.09,6,NNW,2.3,,,,Overcast,330,2012-10-07 09:00:00
11:55 AM,78.8,69.8,74,30.06,6.2,West,4.6,-,N/A,,Scattered Clouds,280,2012-10-07 09:55:00
12:55 PM,78.8,68.0,69,30.06,6.2,NW,8.1,-,N/A,,Scattered Clouds,320,2012-10-07 10:55:00
1:55 PM,82.4,69.8,66,30.04,6.2,NNW,10.4,-,N/A,,Scattered Clouds,340,2012-10-07 11:55:00
2:00 PM,82,69,57,30.05,7,NNW,10.4,,,,Scattered Clouds,340,2012-10-07 12:00:00
2:55 PM,80.6,68.0,65,30.04,6.2,WNW,9.2,-,N/A,,Mostly Cloudy,300,2012-10-07 12:55:00
3:55 PM,80.6,66.2,61,30.04,6.2,NNW,13.8,-,N/A,,Scattered Clouds,330,2012-10-07 13:55:00
4:55 PM,77.0,68.0,74,30.01,6.2,NW,13.8,-,N/A,,Scattered Clouds,320,2012-10-07 14:55:00
5:00 PM,78,67,61,30.03,7,NW,13.8,,,,Overcast,320,2012-10-07 15:00:00
5:55 PM,77.0,68.0,74,30.01,6.2,NW,11.5,-,N/A,,Scattered Clouds,320,2012-10-07 15:55:00
6:55 PM,75.2,68.0,78,30.04,6.2,NNW,10.4,-,N/A,,Scattered Clouds,330,2012-10-07 16:55:00
7:55 PM,75.2,62.6,65,30.01,6.2,North,9.2,-,N/A,,Scattered Clouds,350,2012-10-07 17:55:00
8:00 PM,76,63,55,30.03,6,North,9.2,,,,Overcast,350,2012-10-07 18:00:00
8:55 PM,75.2,71.6,89,30.04,6.2,North,9.2,-,N/A,,Scattered Clouds,360,2012-10-07 18:55:00
9:55 PM,71.6,68.0,88,30.04,6.2,North,11.5,-,N/A,,Scattered Clouds,10,2012-10-07 19:55:00
10:55 PM,71.6,68.0,88,30.04,6.2,NNW,6.9,-,N/A,,Partly Cloudy,340,2012-10-07 20:55:00
11:00 PM,72,68,83,30.06,6,NNW,6.9,,,,Scattered Clouds,340,2012-10-07 21:00:00
11:55 PM,69.8,66.2,88,30.04,6.2,NNW,11.5,-,N/A,,Partly Cloudy,330,2012-10-07 21:55:00